Regional Weather Roundup
Issued by NWS

Home | Current Version | Previous Version | Text Only | Print | Product List | Glossary On
Versions: 1 2 3 4 5 6 7 8 9 10 11 12 13 14 15 16 17 18 19 20 21 22 23 24 25 26 27 28 29 30 31 32 33 34 35 36 37 38 39 40 41 42 43 44 45 46 47 48 49 50
000
ASUS43 KOAX 280110
RWRNE

WEATHER ROUNDUP FOR NEBRASKA
NATIONAL WEATHER SERVICE OMAHA NE
800 PM CDT WED JUL 27 2016

NOTES: SATELLITE DATA IS BEING USED TO AUGMENT CLOUD COVER ABOVE
       12000 FEET.
       "FAIR" INDICATES FEW OR NO CLOUDS BELOW 12,000 FEET WITH NO
       SIGNIFICANT WEATHER AND/OR OBSTRUCTIONS TO VISIBILITY.

  * THESE STATIONS DO NOT REPORT WEATHER SUCH AS RAIN...SNOW OR FOG.

NEZ001>004-019>022-054>056-280200-
NEBRASKA PANHANDLE

CITY           SKY/WX    TMP DP  RH WIND       PRES   REMARKS
SCOTTSBLUFF    CLOUDY    83  55  38 E10       30.08R
ALLIANCE       SUNNY     80  58  46 E17G23    30.10R
CHADRON        SUNNY     78  55  44 NE13      30.08R
SIDNEY         CLOUDY    80  59  48 SE14      30.14R
$$

NEZ057>060-069>072-079>082-280200-
SOUTHWEST NEBRASKA

CITY           SKY/WX    TMP DP  RH WIND       PRES   REMARKS
NORTH PLATTE   SUNNY     82  64  54 NE6       30.04F
IMPERIAL       PTSUNNY   85  59  41 NE13      30.06R
LEXINGTON      CLEAR     81  69  67 E5        30.04S
MCCOOK         SUNNY     84  65  52 E13       30.02R
OGALLALA       SUNNY     83  58  43 E9        30.08R
$$

NEZ005>010-023>029-035>040-094-280200-
NORTH CENTRAL NEBRASKA

CITY           SKY/WX    TMP DP  RH WIND       PRES   REMARKS
VALENTINE      CLOUDY    74  66  76 MISG      30.08S
AINSWORTH      CLOUDY    68  64  84 N6        30.09S
BROKEN BOW     LGT RAIN  69  64  84 N5        30.07R
O`NEILL        RAIN      65  62  91 N8        30.07R
ORD            CLOUDY    73  62  68 N13       30.04R
THEDFORD       CLOUDY    75  60  59 E7        30.10R
$$

NEZ041-046>049-061>064-073>077-083>087-280200-
SOUTH CENTRAL NEBRASKA

CITY           SKY/WX    TMP DP  RH WIND       PRES   REMARKS
GRAND ISLAND   CLEAR     83  65  54 NE6       30.02R
AURORA         CLEAR     81  67  63 NE3       30.01R
HASTINGS       CLEAR     83  68  60 NE6       30.03R
HEBRON         CLEAR     84  65  53 N6        29.96S
HOLDREGE       CLEAR     79  69  71 N3        30.03R
KEARNEY *      CLEAR     82  21  10 NE6       30.04R
YORK           CLEAR     77  72  83 NW5       30.00R
$$

NEZ011>018-030>034-042>045-280200-
NORTHEAST NEBRASKA

CITY           SKY/WX    TMP DP  RH WIND       PRES   REMARKS
NORFOLK        CLOUDY    79  65  62 NW7       30.00R
ALBION         MOCLDY    77  67  72 N5        30.03R
BLAIR          PTCLDY    82  70  67 NW5       29.94S
FREMONT        CLEAR     81  66  60 NW6       29.96R
TEKAMAH        CLOUDY    82  68  62 N3        29.94R
WAYNE          PTCLDY    78  70  78 W5        29.99R
$$

NEZ050>053-065>068-078-088>093-280200-
SOUTHEAST NEBRASKA

CITY           SKY/WX    TMP DP  RH WIND       PRES   REMARKS
LINCOLN        CLEAR     84  69  60 N9        29.95R
OMAHA EPPLEY   MOCLDY    84  71  65 N6        29.92S
BEATRICE       CLEAR     83  69  61 NW6       29.95R
FALLS CITY     CLEAR     83  72  69 N5        29.91R
NEBRASKA CITY  CLEAR     80  69  69 NW3       29.93S
PLATTSMOUTH    CLEAR     82  71  70 NW3       29.93R
$$

NEZ044-045-051>053-067-280200-
OMAHA AREA

CITY           SKY/WX    TMP DP  RH WIND       PRES   REMARKS
OMAHA EPPLEY   MOCLDY    84  71  65 N6        29.92S
BLAIR          PTCLDY    82  70  67 NW5       29.94S
FREMONT        CLEAR     81  66  60 NW6       29.96R
MILLARD        CLEAR     84  69  61 N3        29.92R
OFFUTT AFB     MOCLDY    83  71  66 NE7       29.92R
PLATTSMOUTH    CLEAR     82  71  70 NW3       29.93R
WAHOO          FAIR      81  70  68 NW5       29.95R
$$




USA.gov is the U.S. government's official web portal to all federal, state and local government web resources and services.